User: anonymous   Login
Location: Unspecified
(0.0000°N, 0.0000°E)
Time: 04:37:16
(UTC+00:00)
Language:

Kopernikus 3 - Orbit

View from above orbital plane
View from above orbital plane
View from above satellite
View from above satellite

Ground track
Ground track

The orbit data is extracted from the following two-line orbital elements,

1 22175U 92066A   18291.89153670 +.00000113 +00000-0 +00000-0 0  9995
2 22175 012.6114 028.2329 0002799 257.7939 106.9760 00.99726948092643
Epoch (UTC): 18 October 2018 21:23:48
Eccentricity: 0.0002799
inclination: 12.6114°
perigee height: 35928 km
apogee height: 35951 km
right ascension of ascending node: 28.2329°
argument of perigee: 257.7939°
revolutions per day: 0.99726948
mean anomaly at epoch: 106.9760°
orbit number at epoch: 9264

The dashed part of the orbit path shows where the satellite is in the earth's shadow,  

DLR